www.pogodaiklimat.ru

Погода и климат >> Архив погоды >> Китай >> Внутренняя Монголия >> Шилин-Хото


ПОГОДА в Шилин-Хото

  • Прогноз погоды в Шилин-Хото
  • Монитор погоды в Шилин-Хото

АРХИВ ПОГОДЫ в Шилин-Хото

Время (UTC), дата Ветер
(напр.,м/с)
 
Видим.   Явления Облачность Т
(С)
Тd
(С)
f
(%)
Тe
(С)
Тes
(С)
Комфортность P
(гПа)
Po
(гПа)
Тmin
(С)
Tmax
(С)
R
(мм)
R24
(мм)
S
(см)
03 13.07 З 2 28 км 3/3 600 м
[]
+26.0 +13.2 45 +28 +40 жарко 1002.9 894.2
06 13.07 С 2 30 км 4/4 600 м
[]
+28.9 +9.6 30 +29 +39 жарко 1000.7 892.0 +14.6
09 13.07 В 6
{18}
19 км в посл. час дождь 8/8 600 м
[]
+22.8 +12.1 51 +25 +26 комфорт 1002.3 892.6
12 13.07 ЮЗ 2
{18}
30 км {дождь} 8/8 1000 м
[]
+21.3 +10.2 49 +23 +23 комфорт 1002.8 893.3 0.2
15 13.07 штиль 0 22 км н/о +17.3 +11.3 68 +17 +17 1003.5 891.7
18 13.07 В 1 23 км н/о +15.2 +12.0 81 +16 +16 1003.3 894.1 +29.8
21 13.07 ЮВ 2 23 км н/о +13.5 +11.0 85 +13 +13 1004.9 891.5
00 14.07 Ю 1 26 км ясно +19.5 +12.8 65 +22 +30 комфорт 1004.4 894.5
03 14.07 З 3 20 км ясно +25.5 +12.4 44 +27 +42 жарко 1003.5 894.6
06 14.07 СВ 5 30 км 3/3 600 м
[]
+28.5 +9.7 31 +29 +35 жарко 1002.0 892.9 +13.3
09 14.07 С 4 30 км 5/5 600 м
[]
+27.9 +10.6 34 +28 +30 жарко 1002.0 894.1
12 14.07 СВ 2 29 км 4/4 600 м
[]
+26.1 +9.5 35 +27 +27 жарко 1002.2 893.4
15 14.07 Ю 3 30 км н/о +21.2 +11.0 52 +23 +23 комфорт 1003.1 892.7
18 14.07 Ю 1 30 км н/о +18.7 +10.8 60 +20 +20 1003.6 894.9 +29.5
21 14.07 ЮВ 1 30 км н/о +16.0 +12.0 77 +17 +17 1004.6 892.2
00 15.07 Ю 1 25 км 1/1
[]
+21.8 +14.0 61 +25 +32 комфорт 1004.4 895.7
03 15.07 СЗ 1 30 км 1/1 1000 м
[]
+28.7 +9.9 31 +29 +47 жарко 1003.5 895.7
06 15.07 Ю 4 30 км 3/3 1000 м
[]
+31.5 +7.9 23 +30 +38 жарко 1002.3 894.2 +15.9
09 15.07 СЗ 2 30 км 3/3 1000 м
[]
+32.1 +6.3 20 +30 +34 жарко 1001.5 895.0
12 15.07 ЮВ 2 28 км 9/9
[]
+27.6 +9.0 31 +28 +28 жарко 1002.1 893.9
15 15.07 ЮВ 5 30 км н/о +24.3 +10.9 43 +26 +26 жарко 1002.5 893.3
18 15.07 Ю 4 30 км н/о +24.0 +14.1 54 +26 +26 жарко 1001.9 894.8 +32.3
21 15.07 Ю 4 25 км н/о +23.0 +14.8 60 +27 +27 душно 1002.7 893.0
00 16.07 ЮЗ 4 25 км 9/9
[]
+25.2 +13.7 49 +27 +28 жарко 1003.8 896.0
03 16.07 ЮЗ 6 30 км 8/8 600 м
[]
+29.2 +13.4 38 +31 +32 жарко 1003.2 895.6
06 16.07 З 7 30 км 9/9 600 м
[]
+28.1 +13.6 41 +30 +30 жарко 1003.0 895.2 +22.7
09 16.07 З 4 30 км 9/9 600 м
[]
+24.8 +14.0 51 +27 +27 жарко 1005.0 895.7
12 16.07 Ю 2 22 км слаб. дождь 9/9 1000 м
[]
+19.1 +15.6 80 +21 +21 комфорт 1007.0 897.4 0.0
15 16.07 штиль 0 22 км слаб. дождь н/о +19.7 +14.9 74 +21 +21 комфорт 1006.8 895.5
18 16.07 Ю 3 22 км слаб. дождь ?/? +17.9 +16.4 91 +18 +18 1006.1 896.9 +29.9 0.3
21 16.07 Ю 2 18 км н/о +17.7 +15.9 89 +18 +18 1007.2 895.1
00 17.07 В 1 22 км 9/9 1000 м
[]
+19.0 +15.7 81 +21 +22 комфорт 1008.5 897.7 0.1
03 17.07 В 2 30 км 9/9 600 м
[]
+23.1 +15.2 61 +27 +29 душно 1007.3 897.1
06 17.07 Ю 2 30 км 8/8 600 м
[]
+26.3 +13.4 45 +28 +31 жарко 1005.5 896.1 +17.5
09 17.07 ЮВ 1 30 км 3/3 600 м
[]
+28.8 +11.8 35 +30 +34 жарко 1003.6 895.8
12 17.07 Ю 1 28 км слаб. дождь 8/8 1000 м
[]
+25.4 +17.1 60 +29 +29 душно 1005.1 895.7 0.1
15 17.07 Ю 1 30 км ?/? +21.8 +14.2 62 +25 +25 комфорт 1006.4 895.9
18 17.07 Ю 1 30 км н/о +18.1 +13.8 76 +19 +19 1006.6 897.1 +29.0
21 17.07 Ю 1 21 км н/о +16.8 +14.3 85 +18 +18 1006.8 894.4
00 18.07 Ю 2 21 км 8/8
[]
+23.2 +15.5 62 +27 +29 душно 1006.0 897.3
03 18.07 Ю 1 28 км 8/8 1000 м
[]
+29.2 +13.4 38 +31 +35 жарко 1005.1 897.3
06 18.07 С 2 30 км 8/8 1000 м
[]
+32.2 +12.4 30 +33 +36 жарко 1003.1 895.0 +16.7
09 18.07 С 1 17 км 8/8 1000 м
[]
+33.1 +11.0 26 +33 +34 жарко 1002.0 895.8
12 18.07 ЮЗ 3 30 км 9/9 1000 м
[]
+28.1 +14.0 42 +30 +30 жарко 1002.3 894.4
15 18.07 ЮВ 3 30 км н/о +25.5 +14.0 49 +28 +28 жарко 1002.0 893.2
18 18.07 Ю 2 30 км н/о +23.6 +13.5 53 +26 +26 жарко 1001.8 894.7 +33.5
21 18.07 Ю 4 19 км н/о +24.0 +16.5 63 +27 +27 жарко 1001.2 892.0
00 19.07 Ю 4 17 км 9/9 1000 м
[]
+25.7 +16.5 57 +29 +30 душно 1001.0 893.7
03 19.07 Ю 5 26 км 4/4
[]
+30.7 +14.3 37 +33 +38 душно 999.3 892.6
06 19.07 Ю 7 30 км 9/9 600 м
[]
+32.6 +13.3 31 +34 +34 очень
жарко
996.9 890.4 +23.4
09 19.07 штиль 0 4400 м слаб. дождь 10/10 600 м
[]
+21.7 +19.4 87 +27 +27 душно 1000.3 890.4
12 19.07 ЮВ 2 1500 м слаб. дождь 10/10 600 м
[]
+19.5 +18.2 92 +22 +22 комфорт 1001.1 892.3 8
15 19.07 Ю 3 6000 м слаб. дождь н/о +20.7 +19.2 91 +25 +25 комфорт 999.5 889.3
18 19.07 Ю 1 11 км ?/? +20.8 +18.9 89 +26 +26 душно 998.3 891.2 +33.7 4
21 19.07 Ю 2 4700 м дымка н/о +19.6 +18.4 93 +23 +23 комфорт 1000.4 889.8
00 20.07 Ю 4 14 км 3/3 600 м
[]
+23.3 +18.8 76 +30 +33 очень
душно
999.8 890.7 0.1

 

Местоположение метеостанции Шилин-Хото (Внутренняя Монголия, Китай): широта 43.95 долгота 116.11 высота над уровнем моря 1004 м.

В архиве по умолчанию представлена погода в Шилин-Хото за последнюю неделю. Архивные данные за месяц целиком и за предыдущие месяцы, начиная с января 2011 года, Вы можете получить, выбрав интересующий диапазон дат из раскрывающегося списка и нажав кнопку "Ввод!".


*Определитесь, кто Вы:
робот инопланетянин человек

Внимание! Время в таблицах - всемирное. Для получения местного времени необходимо прибавить поправку, которая равна 8 ч.

Смотрите также архив погоды в соседних городах и на ближайших метеорологических станциях:

Погода в Баянчагане (Внутренняя Монголия, Китай) (93 км)
Погода в Си-Уджимчин-Ци (Внутренняя Монголия, Китай) (138 км)
Погода в Линьси (Внутренняя Монголия, Китай) (161 км)
Погода в Нарэнбаулаге (Внутренняя Монголия, Китай) (173 км)
Погода в Дун-Уджимчин-Ци (Внутренняя Монголия, Китай) (187 км)
Погода в Долуне (Внутренняя Монголия, Китай) (199 км)
Погода в Эрдэнэцагаане (Монголия) (225 км)
Погода в Вэйчане (Хэбэй, Китай) (261 км)
Погода в Байрин-Цзоци (Внутренняя Монголия, Китай) (263 км)
Погода в Хуадэ (Внутренняя Монголия, Китай) (285 км)

Пояснения к столбцам:

Ветер - указаны скорость ветра в м/с - средняя за 10 мин, порывы в срок и между сроками (в фигурных скобках) и направление, откуда дует ветер: С - северный, СВ - северо-восточный, В - восточный, ЮВ - юго-восточный, Ю - южный, ЮЗ - юго-западный, З - западный, СЗ - северо-западный.
Видимость - горизонтальная дальность видимости в метрах или километрах. При видимости от 1 до 10 км при отсутствии осадков обычно наблюдается дымка, при ухудшении видимости до 1 км и менее - туман. В сухую погоду видимость может ухудшаться дымом, пылью или мглою.
Явления - указаны атмосферные явления, наблюдавшиеся в срок или в последний час перед сроком; фигурными скобками обозначены явления, наблюдавшиеся между сроками (за 1-3 часа до срока); квадратными скобками обозначены град или гололедные отложения с указанием их диаметра в мм.
Облачность - указаны через наклонную черту общая и нижняя облачность в баллах и высота нижней границы облаков в метрах; квадратными скобками обозначены формы облаков: Ci - перистые, Cs - перисто-слоистые, Cc - перисто-кучевые, Ac - высококучевые, As - высокослоистые, Sc - слоисто-кучевые, Ns - слоисто-дождевые, Cu - кучевые, Cb - кучево-дождевые. Подробнее классификацию облаков см. в Атласе облаков (PDF).
T - Температура воздуха - температура, измеренная на высоте 2 м над землей.
Td - Температура точки росы - температура, при понижении до которой содержащийся в воздухе водяной пар достигнет насыщения.
f - Относительная влажность воздуха - влажноcть воздуха, измеренная на высоте 2 м над землей.
Te - Эффективная температура - температура, которую ощущает одетый по сезону человек в тени. Характеристика душности погоды. При расчете учитывается влияние влажности воздуха и скорости ветра на теплоощущения человека.
Tes - Эффективная температура на солнце - температура, которую ощущает человек, с поправкой на солнечный нагрев. Характеристика знойности погоды. Зависит от высоты солнца над горизонтом, облачности и скорости ветра. Ночью, в пасмурную погоду, а также при ветре 12 м/с и более поправка равна нулю.
P - Атмосферное давление - приведенное к уровню моря атмосферное давление.
Po - Атмосферное давление - измеренное на уровне метеостанции атмосферное давление.
Tmin - Минимальная температура - минимум температуры воздуха на высоте 2 м над землей.
Tmax - Максимальная температура - максимум температуры воздуха на высоте 2 м над землей.
R - Количество осадков - Количество выпавших осадков за период времени, мм. При наведении курсора мыши на число - период времени, за который выпало указанное количество осадков.
R24 - Количество осадков - Количество выпавших осадков за 24 часа, мм.
S - Снежный покров - Высота снежного покрова, см. При наведении курсора мыши на число - состояние снежного покрова и степень покрытия местности в баллах.